FW7504 Weather Reports


Display with metric or nautical units.
time (UTC)temp
F
wind
direction
speed
MPH
gust
MPH
rain 1hr
in
rain 24hr
in
rain mn
in
humidity
%
barometer
mb
20260906152555 86 0 0.0 6.0 0.00 0.02 0.00 65 1014.5
20260906152053 86 304 1.0 5.0 0.00 0.02 0.00 65 1014.5
20260906151609 86 0 1.0 5.0 0.00 0.02 0.00 65 1014.6
20260906151056 85 0 0.0 4.0 0.00 0.02 0.00 65 1014.6
20260906150552 85 346 0.0 4.0 0.00 0.02 0.00 66 1014.5
20260906150106 85 40 2.0 4.0 0.00 0.02 0.00 68 1014.6
20260906145555 84 19 0.0 4.0 0.00 0.02 0.00 70 1014.6
20260906145054 84 333 2.0 5.0 0.00 0.02 0.00 70 1014.6
20260906144602 83 360 0.0 5.0 0.00 0.02 0.00 73 1014.7
20260906144055 83 332 2.0 5.0 0.00 0.02 0.00 73 1014.5
20260906143554 82 24 1.0 5.0 0.00 0.02 0.00 74 1014.7
20260906143103 82 12 1.0 3.0 0.00 0.02 0.00 75 1014.6
20260906142552 81 61 1.0 3.0 0.00 0.02 0.00 76 1014.7
20260906142054 81 0 0.0 0.0 0.00 0.02 0.00 78 1014.6
20260906141601 81 0 0.0 0.0 0.00 0.02 0.00 77 1014.6
20260906141052 80 0 0.0 0.0 0.00 0.02 0.00 79 1014.6
20260906140553 80 0 0.0 0.0 0.00 0.02 0.00 79 1014.6
20260906140107 80 0 0.0 0.0 0.00 0.02 0.00 79 1014.7
20260906135554 79 0 0.0 0.0 0.00 0.02 0.00 81 1014.7
20260906135054 79 0 0.0 0.0 0.00 0.02 0.00 81 1014.8
20260906134557 79 0 0.0 0.0 0.00 0.02 0.00 82 1014.7
20260906134053 78 0 0.0 0.0 0.00 0.02 0.00 84 1014.8
20260906133552 78 0 0.0 0.0 0.00 0.02 0.00 84 1015.0
20260906133132 77 0 0.0 0.0 0.00 0.02 0.00 85 1014.9
20260906132554 77 0 0.0 0.0 0.00 0.02 0.00 86 1014.9
20260906132054 76 0 0.0 0.0 0.00 0.02 0.00 87 1015.0
20260906131616 75 0 0.0 0.0 0.00 0.02 0.00 88 1015.1
20260906131053 75 0 0.0 0.0 0.00 0.02 0.00 89 1015.0
20260906130557 75 0 0.0 0.0 0.00 0.02 0.00 89 1015.0
20260906130113 74 0 0.0 0.0 0.00 0.02 0.00 90 1015.1
20260906125557 74 0 0.0 0.0 0.00 0.02 0.00 90 1014.9
20260906125054 74 0 0.0 0.0 0.00 0.02 0.00 90 1015.0
20260906124559 74 0 0.0 0.0 0.00 0.02 0.00 90 1014.9
20260906124052 74 0 0.0 0.0 0.00 0.02 0.00 90 1014.9
20260906123553 74 0 0.0 0.0 0.00 0.02 0.00 90 1014.9
20260906123105 74 0 0.0 0.0 0.00 0.02 0.00 89 1014.8
20260906122556 74 0 0.0 0.0 0.00 0.02 0.00 90 1014.9
20260906122053 74 0 0.0 0.0 0.00 0.02 0.00 90 1014.7
20260906121603 74 0 0.0 0.0 0.00 0.02 0.00 90 1014.9
20260906121052 74 0 0.0 0.0 0.00 0.02 0.00 90 1014.7
20260906120552 74 0 0.0 0.0 0.00 0.02 0.00 90 1014.6
20260906120104 74 0 0.0 0.0 0.00 0.02 0.00 90 1014.6
20260906115552 74 0 0.0 0.0 0.00 0.02 0.00 90 1014.5
20260906115053 74 0 0.0 0.0 0.00 0.02 0.00 90 1014.2
20260906114604 74 0 0.0 0.0 0.00 0.02 0.00 90 1014.3
20260906114052 74 0 0.0 0.0 0.00 0.02 0.00 90 1014.3
20260906113554 74 0 0.0 0.0 0.00 0.02 0.00 89 1014.3
20260906113058 74 0 0.0 0.0 0.00 0.02 0.00 90 1014.3
20260906112554 74 0 0.0 0.0 0.00 0.02 0.00 89 1014.2
20260906112052 74 0 0.0 0.0 0.00 0.02 0.00 89 1014.1
20260906111600 74 0 0.0 0.0 0.00 0.02 0.00 89 1014.0
20260906111052 74 0 0.0 0.0 0.00 0.02 0.00 88 1013.9
20260906110554 74 0 0.0 0.0 0.00 0.02 0.00 88 1013.8
20260906110058 74 0 0.0 0.0 0.00 0.02 0.00 88 1013.6
20260906105549 74 0 0.0 0.0 0.00 0.02 0.00 88 1013.7
20260906105053 74 0 0.0 0.0 0.00 0.02 0.00 88 1013.7
20260906104559 74 0 0.0 0.0 0.00 0.02 0.00 89 1013.7
20260906104052 74 0 0.0 0.0 0.00 0.02 0.00 89 1013.7
20260906103552 74 0 0.0 0.0 0.00 0.02 0.00 88 1013.8
20260906103100 74 0 0.0 0.0 0.00 0.02 0.00 88 1013.7
20260906102553 74 0 0.0 0.0 0.00 0.02 0.00 88 1013.7
20260906102052 75 0 0.0 0.0 0.00 0.02 0.00 89 1013.7
20260906101559 75 0 0.0 0.0 0.00 0.02 0.00 89 1013.6
20260906101052 75 0 0.0 0.0 0.00 0.02 0.00 89 1013.7
20260906100552 75 0 0.0 0.0 0.00 0.02 0.00 89 1013.7
20260906100111 75 0 0.0 0.0 0.00 0.02 0.00 88 1013.8
20260906095556 75 0 0.0 0.0 0.00 0.02 0.00 88 1013.7
20260906095053 75 0 0.0 0.0 0.00 0.02 0.00 88 1013.7
20260906094616 75 0 0.0 0.0 0.00 0.02 0.00 88 1013.6
20260906094052 75 0 0.0 0.0 0.00 0.02 0.00 89 1013.7
20260906093555 75 0 0.0 0.0 0.00 0.02 0.00 89 1013.8
20260906093100 75 0 0.0 0.0 0.00 0.02 0.00 89 1013.9
20260906092554 75 0 0.0 0.0 0.00 0.02 0.00 88 1014.1
20260906092052 75 0 0.0 0.0 0.00 0.02 0.00 88 1014.1
20260906091601 75 0 0.0 2.0 0.00 0.02 0.00 89 1014.1
20260906091054 75 0 0.0 2.0 0.00 0.02 0.00 88 1014.1
20260906090552 75 352 0.0 2.0 0.00 0.02 0.00 88 1014.2
20260906090115 75 0 0.0 2.0 0.00 0.02 0.00 88 1014.2
20260906085554 75 0 0.0 2.0 0.00 0.02 0.00 88 1014.2
20260906085055 75 352 0.0 2.0 0.00 0.02 0.00 88 1014.3
20260906084602 75 0 0.0 1.0 0.00 0.02 0.00 88 1014.3
20260906084053 75 0 0.0 2.0 0.00 0.02 0.00 88 1014.3
20260906083553 75 0 0.0 3.0 0.00 0.02 0.00 88 1014.5
20260906083103 75 0 0.0 3.0 0.00 0.02 0.00 88 1014.6
20260906082552 75 0 0.0 3.0 0.00 0.02 0.00 88 1014.3
20260906082053 75 5 0.0 3.0 0.00 0.02 0.00 88 1014.4
20260906081601 75 5 0.0 3.0 0.00 0.02 0.00 88 1014.3
20260906081052 75 0 0.0 2.0 0.00 0.02 0.00 88 1014.2
20260906080552 75 0 0.0 2.0 0.00 0.02 0.00 89 1014.1
20260906080105 74 0 0.0 2.0 0.00 0.02 0.00 89 1014.0
20260906075552 74 0 0.0 2.0 0.00 0.02 0.00 89 1014.0
20260906075053 74 0 0.0 2.0 0.00 0.02 0.00 89 1013.8
20260906074610 74 0 0.0 2.0 0.00 0.02 0.00 89 1013.8
20260906074052 74 5 0.0 1.0 0.00 0.02 0.00 89 1013.8
20260906073552 74 0 0.0 1.0 0.00 0.02 0.00 89 1013.8
20260906073104 74 0 0.0 2.0 0.00 0.02 0.00 89 1013.8
20260906072552 74 0 0.0 2.0 0.00 0.02 0.00 89 1013.6
20260906072052 74 0 0.0 4.0 0.00 0.02 0.00 89 1013.7
20260906071602 74 0 0.0 4.0 0.00 0.02 0.00 89 1013.7
20260906071049 74 0 0.0 4.0 0.00 0.02 0.00 90 1014.0
20260906070549 74 0 0.0 2.0 0.00 0.02 0.00 90 1014.1
20260906070107 74 0 0.0 2.0 0.00 0.02 0.00 89 1013.9
20260906065555 74 0 0.0 2.0 0.00 0.02 0.00 89 1013.8
20260906065053 74 0 0.0 2.0 0.00 0.02 0.00 89 1013.9
20260906064602 74 0 0.0 2.0 0.00 0.02 0.00 89 1014.0
20260906064052 74 352 0.0 1.0 0.00 0.02 0.00 89 1014.1
20260906063551 74 0 0.0 0.0 0.00 0.02 0.00 89 1014.2
20260906063103 74 0 0.0 0.0 0.00 0.02 0.00 89 1014.3
20260906062551 74 0 0.0 2.0 0.00 0.02 0.00 89 1014.3
20260906062048 74 0 0.0 2.0 0.00 0.02 0.00 89 1014.2
20260906061602 74 0 0.0 2.0 0.00 0.02 0.00 88 1014.1
20260906061056 74 352 0.0 2.0 0.00 0.02 0.00 89 1014.2
20260906060552 74 0 0.0 1.0 0.00 0.02 0.00 89 1014.2
20260906060108 74 0 0.0 1.0 0.00 0.02 0.00 88 1014.2
20260906055552 74 0 0.0 1.0 0.00 0.02 0.00 89 1014.2
20260906055052 74 0 0.0 0.0 0.00 0.02 0.00 89 1014.1
20260906054605 74 0 0.0 0.0 0.00 0.02 0.00 88 1014.1
20260906054049 74 0 0.0 2.0 0.00 0.02 0.00 88 1014.0
20260906053553 74 0 0.0 2.0 0.00 0.02 0.00 88 1014.1
20260906053102 74 352 0.0 2.0 0.00 0.02 0.00 88 1014.0
20260906052555 74 0 0.0 1.0 0.00 0.02 0.00 88 1014.1
20260906052056 74 0 0.0 0.0 0.00 0.02 0.00 88 1014.1
20260906051602 74 0 0.0 0.0 0.00 0.02 0.00 88 1014.0
20260906051052 74 0 0.0 0.0 0.00 0.02 0.00 88 1014.1
20260906050549 75 0 0.0 0.0 0.00 0.02 0.00 87 1014.1
20260906050107 75 0 0.0 0.0 0.00 0.02 0.00 87 1014.2
20260906045548 75 0 0.0 0.0 0.00 0.02 0.00 87 1014.3
20260906045049 75 0 0.0 0.0 0.00 0.02 0.00 86 1014.4
20260906044600 75 0 0.0 0.0 0.00 0.02 0.00 86 1014.5
20260906044051 75 0 0.0 1.0 0.00 0.02 0.00 86 1014.6
20260906043552 75 0 0.0 1.0 0.00 0.02 0.00 86 1014.5
20260906043101 75 0 0.0 1.0 0.00 0.02 0.00 86 1014.5
20260906042553 75 352 0.0 1.0 0.00 0.02 0.00 86 1014.5
20260906042052 75 0 0.0 0.0 0.00 0.02 0.00 86 1014.5
20260906041604 75 0 0.0 0.0 0.00 0.02 0.00 85 1014.6
20260906041052 75 0 0.0 0.0 0.00 0.02 0.00 85 1014.5
20260906040552 75 0 0.0 0.0 0.00 0.02 0.00 85 1014.6
20260906035552 76 0 0.0 0.0 0.00 0.02 0.02 85 1014.6
20260906035049 76 0 0.0 1.0 0.00 0.02 0.02 85 1014.8
20260906034602 76 0 0.0 1.0 0.00 0.02 0.02 85 1014.5
20260906034053 76 0 0.0 1.0 0.00 0.02 0.02 84 1014.6
20260906033556 76 352 0.0 1.0 0.00 0.02 0.02 84 1014.7
20260906033102 76 0 0.0 1.0 0.00 0.02 0.02 84 1014.6
20260906032552 76 0 0.0 2.0 0.00 0.02 0.02 83 1014.7
20260906032052 76 0 0.0 2.0 0.00 0.02 0.02 83 1014.7
20260906031603 76 0 0.0 2.0 0.00 0.02 0.02 83 1014.5
20260906031052 76 0 0.0 1.0 0.00 0.02 0.02 83 1014.7
20260906030552 76 0 0.0 1.0 0.00 0.02 0.02 83 1014.6
20260906025552 77 0 0.0 0.0 0.00 0.02 0.02 83 1014.6
20260906025052 77 0 0.0 0.0 0.00 0.02 0.02 83 1014.6
20260906024607 77 0 0.0 0.0 0.00 0.02 0.02 83 1014.5
20260906024051 77 0 0.0 0.0 0.00 0.02 0.02 82 1014.2
20260906023549 77 0 0.0 0.0 0.00 0.02 0.02 82 1014.2
20260906023103 77 0 0.0 0.0 0.00 0.02 0.02 81 1014.1
20260906022555 77 0 0.0 0.0 0.00 0.02 0.02 81 1014.0
20260906022055 78 0 0.0 0.0 0.00 0.02 0.02 81 1014.0
20260906021607 78 0 0.0 0.0 0.00 0.02 0.02 80 1014.2
20260906021055 78 0 0.0 0.0 0.00 0.02 0.02 80 1014.1
20260906020552 78 0 0.0 0.0 0.00 0.02 0.02 80 1014.1
20260906020104 78 0 0.0 0.0 0.00 0.02 0.02 79 1014.1
20260906015551 78 0 0.0 0.0 0.00 0.02 0.02 80 1014.0
20260906015049 79 0 0.0 0.0 0.00 0.02 0.02 79 1013.9
20260906014611 79 0 0.0 0.0 0.00 0.02 0.02 79 1013.7
20260906014051 79 0 0.0 2.0 0.00 0.02 0.02 79 1013.8
20260906013554 79 0 0.0 2.0 0.00 0.02 0.02 78 1013.6
20260906013106 79 0 0.0 2.0 0.00 0.02 0.02 77 1013.5
20260906012550 79 352 0.0 3.0 0.00 0.02 0.02 77 1013.5
20260906012049 79 352 0.0 3.0 0.00 0.02 0.02 77 1013.4
20260906011619 80 352 2.0 3.0 0.00 0.02 0.02 76 1013.5
20260906011048 80 323 1.0 3.0 0.00 0.02 0.02 77 1013.5
20260906010548 80 0 0.0 1.0 0.00 0.02 0.02 76 1013.6
20260906010105 80 0 0.0 1.0 0.00 0.02 0.02 75 1013.4
20260906005548 80 0 0.0 1.0 0.00 0.02 0.02 75 1013.4
20260906005052 80 0 0.0 1.0 0.00 0.02 0.02 75 1013.4
20260906004605 81 0 0.0 0.0 0.00 0.02 0.02 75 1013.4
20260906004052 81 0 0.0 0.0 0.00 0.02 0.02 74 1013.3
20260906003549 81 0 0.0 0.0 0.00 0.02 0.02 74 1013.3
20260906003111 81 0 0.0 0.0 0.00 0.02 0.02 74 1013.2
20260906002552 81 0 0.0 0.0 0.00 0.02 0.02 73 1013.1
20260906002055 82 0 0.0 1.0 0.00 0.02 0.02 73 1013.1
20260906001604 82 0 0.0 3.0 0.00 0.02 0.02 71 1013.0
20260906001054 83 0 1.0 3.0 0.00 0.02 0.02 71 1013.1
20260906000551 83 68 1.0 3.0 0.00 0.02 0.02 71 1013.1
20260905235552 83 5 0.0 1.0 0.00 0.02 0.02 69 1013.5
20260905235057 83 0 0.0 1.0 0.00 0.02 0.02 69 1013.4
20260905234603 83 0 0.0 2.0 0.00 0.02 0.02 68 1013.2
20260905234054 84 0 0.0 2.0 0.00 0.02 0.02 68 1013.5
20260905233554 84 0 0.0 2.0 0.00 0.02 0.02 67 1013.6
20260905233121 84 0 0.0 2.0 0.00 0.02 0.02 68 1013.5
20260905232553 84 0 0.0 1.0 0.00 0.02 0.02 68 1013.6
20260905232053 84 0 0.0 1.0 0.00 0.02 0.02 68 1013.4
20260905231602 85 0 0.0 1.0 0.00 0.02 0.02 67 1013.1
20260905231054 85 0 0.0 2.0 0.00 0.02 0.02 67 1012.9
20260905230556 85 0 0.0 8.0 0.00 0.02 0.02 65 1012.9
20260905230103 85 0 2.0 8.0 0.00 0.02 0.02 64 1012.9
20260905225553 85 113 3.0 8.0 0.00 0.02 0.02 64 1012.8
20260905225054 85 102 4.0 8.0 0.00 0.02 0.02 64 1012.7
20260905224625 86 104 3.0 8.0 0.00 0.02 0.02 63 1013.0
20260905224053 86 78 2.0 7.0 0.00 0.02 0.02 63 1013.0
20260905223553 86 77 1.0 7.0 0.00 0.02 0.02 63 1013.0
20260905223107 86 70 1.0 6.0 0.00 0.02 0.02 63 1013.1
20260905222553 86 71 2.0 7.0 0.00 0.02 0.02 63 1013.1
20260905222053 87 82 2.0 9.0 0.00 0.02 0.02 63 1013.3
20260905221559 87 53 3.0 9.0 0.00 0.02 0.02 62 1013.2
20260905221054 87 64 3.0 7.0 0.00 0.02 0.02 63 1013.3
20260905220553 87 360 1.0 6.0 0.00 0.02 0.02 64 1013.5
20260905220107 87 85 1.0 8.0 0.00 0.02 0.02 64 1013.6
20260905215554 87 63 3.0 10.0 0.00 0.02 0.02 64 1013.6
20260905215053 87 360 3.0 10.0 0.00 0.02 0.02 64 1013.7
20260905214606 87 90 3.0 7.0 0.00 0.02 0.02 65 1013.8
20260905214054 87 69 1.0 6.0 0.00 0.02 0.02 66 1013.8
20260905213554 87 0 2.0 10.0 0.00 0.02 0.02 65 1013.7
20260905213102 87 51 2.0 10.0 0.00 0.02 0.02 65 1013.6
20260905212554 87 41 4.0 11.0 0.00 0.02 0.02 64 1013.7
20260905212053 87 9 4.0 11.0 0.00 0.02 0.02 65 1013.6
20260905211609 86 59 3.0 11.0 0.00 0.02 0.02 66 1013.7
20260905211052 86 331 5.0 13.0 0.00 0.02 0.02 66 1013.7
20260905210553 86 34 4.0 14.0 0.00 0.02 0.02 66 1013.8
20260905205554 86 100 8.0 15.0 0.00 0.02 0.02 67 1013.5
20260905205053 86 94 8.0 15.0 0.00 0.02 0.02 67 1013.7
20260905204602 86 91 9.0 15.0 0.00 0.02 0.02 67 1013.7
20260905204056 86 322 5.0 15.0 0.00 0.02 0.02 67 1013.8
20260905203554 86 63 7.0 14.0 0.00 0.02 0.02 67 1014.0
20260905203106 87 67 7.0 15.0 0.00 0.02 0.02 67 1014.1
20260905202554 87 52 6.0 15.0 0.00 0.02 0.02 68 1014.1
20260905202056 87 109 4.0 13.0 0.00 0.02 0.02 69 1014.1
20260905201611 87 80 4.0 21.0 0.00 0.02 0.02 70 1013.9
20260905201055 87 77 7.0 21.0 0.00 0.02 0.02 71 1013.8
20260905200554 86 344 1.0 4.0 0.00 0.02 0.02 79 1013.4
20260905200104 86 0 0.0 2.0 0.00 0.02 0.02 83 1013.3
20260905195555 85 0 0.0 2.0 0.00 0.02 0.02 85 1013.4
20260905195054 85 0 0.0 1.0 0.00 0.02 0.02 88 1013.6
20260905194600 85 0 0.0 0.0 0.00 0.02 0.02 86 1013.5
20260905194057 85 0 0.0 0.0 0.00 0.02 0.02 88 1013.5
20260905193553 85 0 0.0 0.0 0.02 0.02 0.02 88 1013.6
20260905193100 85 0 0.0 0.0 0.02 0.02 0.02 89 1013.8
20260905192554 85 0 0.0 0.0 0.02 0.02 0.02 89 1013.8
20260905192054 85 0 0.0 0.0 0.02 0.02 0.02 89 1013.9
20260905191610 85 0 0.0 1.0 0.02 0.02 0.02 87 1013.9
20260905191053 85 0 0.0 2.0 0.02 0.02 0.02 84 1014.0
20260905190553 85 0 0.0 2.0 0.02 0.02 0.02 81 1014.2
20260905190138 86 0 0.0 2.0 0.02 0.02 0.02 78 1014.1
20260905185554 88 0 0.0 3.0 0.02 0.02 0.02 74 1014.4
20260905185054 90 0 1.0 5.0 0.02 0.02 0.02 71 1014.3
20260905184622 92 225 1.0 5.0 0.02 0.02 0.02 67 1014.3
20260905184056 94 360 1.0 5.0 0.02 0.02 0.02 60 1014.3
20260905183554 95 360 1.0 6.0 0.00 0.00 0.00 54 1014.0
20260905183106 95 360 2.0 6.0 0.00 0.00 0.00 53 1013.9
20260905182553 95 360 3.0 6.0 0.00 0.00 0.00 54 1014.1
20260905182056 95 360 1.0 4.0 0.00 0.00 0.00 52 1014.1
20260905181606 95 0 1.0 8.0 0.00 0.00 0.00 52 1014.1
20260905181054 95 360 1.0 8.0 0.00 0.00 0.00 52 1014.3
20260905180554 95 360 3.0 8.0 0.00 0.00 0.00 54 1014.4
20260905180108 95 360 0.0 8.0 0.00 0.00 0.00 53 1014.3
20260905175553 95 360 0.0 9.0 0.00 0.00 0.00 53 1014.3
20260905175054 95 360 4.0 9.0 0.00 0.00 0.00 53 1014.5
20260905174604 95 360 3.0 8.0 0.00 0.00 0.00 53 1014.6
20260905174052 95 360 2.0 6.0 0.00 0.00 0.00 55 1014.7
20260905173556 95 360 3.0 8.0 0.00 0.00 0.00 55 1014.7
20260905173109 94 360 2.0 10.0 0.00 0.00 0.00 54 1014.9
20260905172556 94 360 3.0 10.0 0.00 0.00 0.00 55 1014.9
20260905172053 93 360 0.0 5.0 0.00 0.00 0.00 57 1015.0
20260905171603 93 0 2.0 5.0 0.00 0.00 0.00 57 1014.9
20260905171050 93 360 1.0 5.0 0.00 0.00 0.00 59 1014.9
20260905170553 93 360 2.0 5.0 0.00 0.00 0.00 60 1015.0
20260905170120 92 360 0.0 8.0 0.00 0.00 0.00 62 1015.1
20260905165548 92 360 2.0 8.0 0.00 0.00 0.00 62 1015.0
20260905165055 92 360 0.0 8.0 0.00 0.00 0.00 63 1015.2
20260905164602 92 0 2.0 8.0 0.00 0.00 0.00 63 1015.3
20260905164051 91 360 2.0 8.0 0.00 0.00 0.00 64 1015.4
20260905163551 91 360 1.0 8.0 0.00 0.00 0.00 64 1015.5
20260905163106 91 360 4.0 8.0 0.00 0.00 0.00 65 1015.5
20260905162550 91 360 1.0 5.0 0.00 0.00 0.00 66 1015.4
20260905162051 90 0 1.0 5.0 0.00 0.00 0.00 66 1015.5
20260905161601 90 360 1.0 5.0 0.00 0.00 0.00 67 1015.6
20260905161052 90 0 0.0 4.0 0.00 0.00 0.00 68 1015.6
20260905160551 90 0 0.0 5.0 0.00 0.00 0.00 67 1015.7
20260905160112 90 360 1.0 5.0 0.00 0.00 0.00 67 1015.8
20260905155552 90 360 2.0 5.0 0.00 0.00 0.00 69 1015.8
20260905155054 89 0 0.0 5.0 0.00 0.00 0.00 68 1015.8
20260905154606 89 360 2.0 5.0 0.00 0.00 0.00 69 1016.0
20260905154052 89 0 2.0 5.0 0.00 0.00 0.00 69 1016.1
20260905153552 89 360 1.0 4.0 0.00 0.00 0.00 69 1016.1
20260905153104 89 0 1.0 4.0 0.00 0.00 0.00 69 1015.9